星链-32167 (STARLINK-32167)

导读

STARLINK-32167是美国SpaceX公司星链(Starlink)星座中的低轨通信卫星,于2024年7月27日发射升空,属于星链第二代mini卫星。它运行在约550公里近地轨道,配备激光星间链路与先进相控阵天线,可提供百G级带宽服务,旨在为全球尤其是偏远地区提供低延迟高速互联网接入,进一步扩充了星链星座的全球覆盖能力与通信容量。

Basic Information
目录编号:
60268
目录名称:
STARLINK-32167
国际标识:
2024-131P
轨道中心:
EARTH
卫星名称:
星链-32167 (STARLINK-32167)
卫星全名:
星链-32167 (STARLINK-32167)
卫星状态:
在轨 (已飞行776 天)
发射日期:
2024-07-27 UTC
国别 :
美国 (US)
星等 :
--
This satellite is enrolled in the Space Conjunction Data Service (SCDS) and the current flight risk assessment level is: No High Risk
Orbit Information
数据来源 国际轨道数据 AOE轨道数据
星历时间 2026-09-11T14:18:12+0800
13小时前
查看轨道信息
2026-09-10T12:00:00+0800
1天前
查看轨道信息
半长轴 6840.792km 6840.804km
偏心率 0.0001167 0.0000926
轨道倾角 53.159° 53.158°
近地点辐角 88.663° 137.989°
升交点赤经 268.849° 273.973°
平近点角 271.451° 284.649°
近地点 461.856km 462.033km
远地点 463.454km 463.301km
周期 93.847分钟 93.847分钟
每日圈数 15.344165 15.344123
Detailed Information
卫星平台:
Starlink v2.0 mini
运营商:
太空探索技术公司
运营商所在国:
美国
制造商(研发单位):
太空探索技术公司
制造商所在国:
美国
使用方式:
暂无
Satellite Introduction
星链(Starlink)计划是由太空探索技术公司(SpaceX)提出的一个巨型低轨卫星互联网星座项目,计划在2019年至2024年间在太空搭建由约1.2万颗卫星组成的“星链”网络,其中1584颗将部署在地球上空550千米处的近地轨道,并从2020年开始工作。该卫星仍在工作。
2D Orbit Map
3D Orbit Map
Orbit Altitude Analysis Chart
Orbit Inclination Analysis Chart
Orbit Comprehensive Analysis Chart
View Comprehensive Chart
Miss Distance Evolution Trend with All Objects
Collision Probability Evolution Trend with All Objects